Weather History for Fallon NAS, NV

Change the Weather History Date:

Monday, September 16, 2013

  Actual Average Record
Temperature  
Mean Temperature 71 °F -  
Max Temperature 91 °F 80 °F 93 °F (1937)
Min Temperature 51 °F 41 °F 32 °F (1970)
Cooling Degree Days 6    
Growing Degree Days 21 (Base 50)    
Moisture  
Dew Point 35 °F    
Average Humidity 31    
Maximum Humidity 62    
Minimum Humidity 12    
Precipitation  
Precipitation 0.00 in - - ()
Sea Level Pressure  
Sea Level Pressure 29.83 in    
Wind  
Wind Speed 4 mph (NNW)    
Max Wind Speed 9 mph    
Max Gust Speed -    
Visibility 10 miles    
Events      
Averages and records for this station are not official NWS values.
T = Trace of Precipitation, MM = Missing Value Source: NWS Daily Summary

Daily Weather History Graph

Daily Weather History Graph

Search for Another Location

Airport:

Trip Planner

Search our weather history database for the weather conditions in past years. The results will help you decide how hot, cold, wet, or windy it might be!

Date:

Astronomy

Sep. 16, 2013 Rise Set
Actual Time 6:37 AM PDT 7:01 PM PDT
Civil Twilight 6:10 AM PDT 7:27 PM PDT
Nautical Twilight 5:38 AM PDT 7:59 PM PDT
Astronomical Twilight 5:06 AM PDT 8:31 PM PDT
Moon 5:12 PM PDT (9/16) 3:29 AM PDT (9/16)
Length of Visible Light 13h 17m
Length of Day
12h 23m
Waxing Gibbous, 91% of the Moon is Illuminated
Sep 16
Waxing Gibbous
Sep 19
Full
Sep 26
Last Quarter
Oct 4
New
Oct 11
First Quarter

Hourly Weather History & Observations

Time (PDT) Temp. Dew Point Humidity Pressure Visibility Wind Dir Wind Speed Gust Speed Precip Events Conditions
12:56 AM 63.0 °F 37.0 °F 38% 29.85 in 10.0 mi NE 6.9 mph - N/A   Clear
1:56 AM 63.0 °F 37.0 °F 38% 29.85 in 10.0 mi ENE 6.9 mph - N/A   Clear
2:56 AM 57.9 °F 37.9 °F 47% 29.86 in 10.0 mi Calm Calm - N/A   Clear
3:56 AM 59.0 °F 37.0 °F 44% 29.86 in 10.0 mi Variable 4.6 mph - N/A   Clear
4:56 AM 57.0 °F 37.9 °F 49% 29.86 in 10.0 mi Calm Calm - N/A   Clear
5:56 AM 54.0 °F 37.0 °F 53% 29.87 in 10.0 mi SSW 3.5 mph - N/A   Clear
6:17 AM 51.8 °F 39.2 °F 62% 29.95 in 10.0 mi Calm Calm - N/A   Clear
6:56 AM 52.0 °F 39.0 °F 61% 29.88 in 10.0 mi Calm Calm - N/A   Clear
7:56 AM 59.0 °F 39.0 °F 48% 29.88 in 10.0 mi Calm Calm - N/A   Clear
8:56 AM 66.9 °F 39.0 °F 36% 29.89 in 10.0 mi Calm Calm - N/A   Clear
9:56 AM 73.9 °F 37.0 °F 26% 29.89 in 10.0 mi Calm Calm - N/A   Clear
10:56 AM 80.1 °F 37.0 °F 21% 29.88 in 10.0 mi Calm Calm - N/A   Clear
11:56 AM 84.9 °F 35.1 °F 17% 29.87 in 10.0 mi NNE 4.6 mph - N/A   Clear
12:56 PM 86.0 °F 32.0 °F 14% 29.85 in 10.0 mi SW 4.6 mph - N/A   Clear
1:56 PM 88.0 °F 33.1 °F 14% 29.82 in 10.0 mi Variable 5.8 mph - N/A   Partly Cloudy
2:56 PM 89.1 °F 32.0 °F 13% 29.79 in 10.0 mi Variable 4.6 mph - N/A   Partly Cloudy
3:56 PM 91.0 °F 32.0 °F 12% 29.76 in 10.0 mi North 9.2 mph - N/A   Partly Cloudy
4:56 PM 91.0 °F 30.9 °F 12% 29.74 in 10.0 mi NNW 9.2 mph - N/A   Partly Cloudy
5:56 PM 90.0 °F 30.0 °F 12% 29.73 in 10.0 mi NNW 6.9 mph - N/A   Partly Cloudy
6:56 PM 84.0 °F 32.0 °F 15% 29.72 in 10.0 mi NNW 3.5 mph - N/A   Partly Cloudy
7:56 PM 80.1 °F 36.0 °F 20% 29.73 in 10.0 mi WNW 9.2 mph - N/A   Clear
8:56 PM 73.9 °F 34.0 °F 23% 29.76 in 10.0 mi NNW 4.6 mph - N/A   Clear
9:56 PM 66.9 °F 35.1 °F 31% 29.78 in 10.0 mi North 5.8 mph - N/A   Clear
10:56 PM 66.0 °F 34.0 °F 30% 29.78 in 10.0 mi NNE 6.9 mph - N/A   Clear
11:56 PM 62.1 °F 34.0 °F 35% 29.78 in 10.0 mi NNW 3.5 mph - N/A   Clear